Location: Jazbina
(46.4667°N, 14.9167°E)
Time: 01:19:39
(UTC+00:00)

Daily predictions for brighter satellites

Satellite Brightness Start Highest point End
(mag) Time Altitude Azimuth Time Altitude Azimuth Time Altitude Azimuth
STARLINK-1212 4.2 00:00:34 10° NW 00:03:33 41° NNE 00:06:31 10° E
STARLINK-1105 4.2 00:01:03 10° NW 00:04:01 41° NNE 00:06:58 10° E
STARLINK-1209 3.6 00:01:15 10° NW 00:04:22 53° NNE 00:06:55 14° E
STARLINK-1247 4.1 00:01:57 10° NW 00:04:57 42° NNE 00:07:56 10° E
STARLINK-1227 4.1 00:02:25 10° NW 00:05:23 42° NNE 00:08:21 10° E
ATLAS CENTAUR R/B 3.3 00:03:31 10° NNW 00:05:47 30° NE 00:09:54 10° E
STARLINK-1226 4.1 00:03:16 10° NW 00:06:16 42° NNE 00:09:15 10° E
Nadezhda 2 Rocket 4.4 00:04:33 38° SSW 00:07:00 73° W 00:13:08 10° N
STARLINK-1215 4.1 00:04:12 10° NW 00:07:12 43° NNE 00:10:13 10° E
STARLINK-1217 4.0 00:05:58 10° NW 00:08:59 44° NNE 00:11:59 10° E
GEOS 3 Rocket 3.6 00:07:39 39° S 00:09:24 60° SW 00:14:38 10° NW
STARLINK-1229 4.0 00:06:53 10° NW 00:09:54 44° NNE 00:12:56 10° E
STARLINK-1270 4.0 00:07:45 10° NW 00:10:47 45° NNE 00:13:47 10° E
Cosmos 1726 4.3 00:09:07 10° NW 00:10:54 15° W 00:10:54 15° W
STARLINK-1189 3.9 00:09:35 10° NW 00:12:37 46° NNE 00:15:39 10° E
Cosmos 2058 Rocket 3.0 00:08:22 10° NNW 00:12:47 73° W 00:13:46 52° SSW
Meteor 1-29 3.5 00:10:11 10° N 00:13:27 45° WNW 00:13:32 45° WNW
STARLINK-1188 3.9 00:10:28 10° NW 00:13:30 46° NNE 00:16:32 10° E
STARLINK-1235 3.5 00:11:08 10° NW 00:14:12 56° NNE 00:17:15 10° ESE
COSMOS 2455 2.9 00:11:39 35° SW 00:14:21 78° NW 00:20:25 10° NNE
STARLINK-1187 3.7 00:11:34 10° NW 00:14:36 51° NNE 00:17:39 10° ESE
Cosmos 2228 3.8 00:11:18 10° NNW 00:15:11 35° W 00:15:32 34° WSW
STARLINK-1191 3.8 00:12:57 10° NW 00:15:58 48° NNE 00:18:59 10° E
Cosmos 2084 4.5 00:15:46 32° SE 00:16:31 34° ESE 00:20:34 10° NE
SJ 16-02 3.4 00:12:59 10° N 00:16:41 25° ENE 00:20:22 10° ESE
STARLINK-1221 3.8 00:13:48 10° NW 00:16:51 48° NNE 00:19:52 10° E
STARLINK-1222 3.8 00:14:42 10° NW 00:17:44 49° NNE 00:20:46 10° E
STARLINK-1214 3.7 00:15:36 10° NW 00:18:39 50° NNE 00:21:41 10° ESE
SL-14 R/B 3.1 00:18:39 61° SW 00:19:13 76° W 00:23:06 10° N
IRAS Rocket 4.3 00:17:53 37° SSW 00:19:59 62° WSW 00:25:32 10° NNW
Cosmos 2292 4.4 00:18:25 10° N 00:22:32 89° E 00:23:01 65° S
Okean 1-7 Rocket 3.7 00:22:03 45° SW 00:23:11 61° W 00:27:39 10° N
Cosmos 1174 3.7 00:23:33 48° WNW 00:23:55 51° NW 00:27:30 10° NNE
Cosmos 1300 2.6 00:20:44 10° NNW 00:24:32 71° W 00:25:04 60° SSW
Cosmos 921 Rocket 3.0 00:23:34 48° S 00:24:39 73° ESE 00:28:57 10° NNE
BREEZE M DEB (TANK) 2.3 00:26:49 57° NNW 00:27:04 62° NNE 00:30:33 10° E
COSMOS 2487 4.3 00:25:30 10° NW 00:27:18 19° WNW 00:27:18 19° WNW
Meteor 2-16 Rocket 4.4 00:27:43 33° SSW 00:30:40 83° W 00:36:51 10° N
Cosmos 1626 Rocket 3.6 00:29:36 40° SSE 00:31:02 70° E 00:35:21 10° NNE
SAR-Lupe-3 4.5 00:29:15 10° N 00:32:49 72° WNW 00:33:22 58° SW
Cosmos 2219 3.7 00:28:00 10° NNW 00:33:39 61° ENE 00:39:12 10° SE
Cosmos 1626 2.6 00:34:31 42° WSW 00:35:03 45° WNW 00:38:39 10° N
STARLINK-60 3.2 00:36:27 53° WNW 00:36:58 65° NNW 00:40:09 10° ENE
Nadezhda 1 Rocket 3.9 00:35:56 10° N 00:42:07 79° W 00:45:52 26° S
FALCON 9 R/B 3.8 00:38:25 26° SW 00:42:22 43° SSE 01:03:13 10° ESE
MOZ.5/SAFIR/RUBIN 5/SL-8 3.8 00:44:15 35° S 00:46:04 63° W 00:50:40 10° NNW
UNK 3.6 00:44:01 30° S 00:46:19 83° WSW 00:50:57 10° NNW
STARLINK-1346 4.5 00:47:35 23° SE 00:47:35 23° SE 00:49:55 10° E
STARLINK-1328 4.5 00:47:57 23° SE 00:47:57 23° SE 00:50:13 10° E
Cosmos 220 Rocket 4.0 00:46:16 39° SSW 00:47:53 88° WNW 00:52:20 10° NNE
STARLINK-1354 4.5 00:48:15 23° SE 00:48:15 23° SE 00:50:32 10° E
STARLINK-1347 4.5 00:48:36 23° SE 00:48:36 23° SE 00:50:54 10° E
STARLINK-1357 4.4 00:48:54 24° SE 00:48:54 24° SE 00:51:13 10° E
STARLINK-1335 4.4 00:49:14 24° SE 00:49:14 24° SE 00:51:35 10° E
STARLINK-1327 4.4 00:49:33 24° SE 00:49:33 24° SE 00:51:54 10° E
Cosmos 2297 Rocket 2.6 00:43:40 10° NNW 00:49:19 65° ENE 00:54:55 10° SE
STARLINK-1340 4.4 00:49:53 24° SE 00:49:53 24° SE 00:52:16 10° E
STARLINK-1356 4.4 00:50:13 24° SE 00:50:13 24° SE 00:52:37 10° E
STARLINK-1245 4.4 00:46:13 10° WNW 00:50:18 53° NNE 00:54:22 10° E
STARLINK-1345 4.4 00:50:33 25° SE 00:50:33 25° SE 00:52:57 10° E
STARLINK-1355 4.4 00:50:52 25° SE 00:50:52 25° SE 00:53:18 10° E
AQUA 4.2 00:45:58 10° NNE 00:50:41 59° E 00:53:19 25° S
STARLINK-1321 4.3 00:51:10 25° SE 00:51:10 25° SE 00:53:37 10° E
STARLINK-1358 4.3 00:51:31 25° SE 00:51:31 25° SE 00:53:59 10° E
STARLINK-1332 4.3 00:51:49 25° SE 00:51:49 25° SE 00:54:19 10° E
STARLINK-1348 4.3 00:52:10 25° SE 00:52:10 25° SE 00:54:40 10° E
Cosmos 1812 Rocket 3.6 00:47:31 10° N 00:52:01 85° E 00:54:30 26° S
SL-4 R/B 2.5 00:49:13 24° WSW 00:52:08 76° NNW 00:56:51 10° ENE
STARLINK-1374 4.5 00:51:59 26° SE 00:52:13 26° SE 00:55:12 10° ENE
CZ-4B R/B 3.7 00:47:06 10° NNE 00:52:14 66° ESE 00:55:16 25° S
STARLINK-1330 4.3 00:52:29 26° SE 00:52:29 26° SE 00:55:00 10° E
STARLINK-1363 4.3 00:52:48 26° SE 00:52:48 26° SE 00:55:20 10° E
Cosmos 1437 3.2 00:52:48 39° W 00:52:56 39° WNW 00:55:49 10° N
STARLINK-1337 4.3 00:53:07 26° SE 00:53:07 26° SE 00:55:41 10° E
STARLINK-1342 4.2 00:53:27 26° SE 00:53:27 26° SE 00:56:02 10° E
STARLINK-1364 4.2 00:53:47 26° SE 00:53:47 26° SE 00:56:22 10° E
STARLINK-1376 4.2 00:54:07 26° SE 00:54:07 26° SE 00:56:43 10° ENE
STARLINK-1339 4.4 00:54:00 27° SSE 00:54:17 27° SE 00:57:19 10° ENE
STARLINK-1360 4.2 00:54:22 27° SE 00:54:22 27° SE 00:57:00 10° ENE
STARLINK-1361 4.2 00:54:48 27° SE 00:54:48 27° SE 00:57:26 10° ENE
STARLINK-1367 4.2 00:55:02 27° SE 00:55:02 27° SE 00:57:45 10° ENE
STARLINK-1233 4.3 00:51:11 10° WNW 00:55:17 56° NNE 00:59:22 10° ESE
STARLINK-1366 4.2 00:55:25 27° SE 00:55:25 27° SE 00:58:05 10° ENE
STARLINK-1377 4.3 00:56:00 28° SSE 00:56:22 28° SE 00:59:26 10° ENE
STARLINK-1353 4.3 00:57:56 28° SSE 00:58:20 29° SE 01:01:24 10° ENE
ATLAS CENTAUR R/B 2.5 00:56:56 21° W 00:59:16 36° NW 01:03:07 10° NNE
SL-16 R/B 2.5 00:56:01 22° S 01:00:04 65° WSW 01:06:13 10° NNW
STARLINK-1375 4.2 00:59:43 29° SSE 01:00:12 30° SE 01:03:18 10° ENE
STARLINK-1204 4.2 00:56:11 10° WNW 01:00:17 59° NNE 01:04:24 10° ESE
Timation 2 Rocket 4.3 00:55:04 10° NW 01:01:04 46° WSW 01:04:30 23° SSW
STARLINK-1350 4.2 01:01:59 30° SSE 01:02:33 31° SE 01:05:41 10° ENE
FALCON 9 DEB 3.1 01:02:07 45° SSW 01:03:00 69° SE 01:06:27 10° ENE
BREEZE-M R/B 2.6 01:01:07 30° SW 01:03:04 68° SSE 01:05:58 10° ENE
Alouette 2 Rocket 4.3 00:56:26 10° N 01:03:10 71° ENE 01:07:10 13° SSE
Cosmos 1602 Rocket 3.5 01:01:57 33° SSW 01:03:49 69° W 01:08:09 10° N
Cosmos 1825 Rocket 4.3 01:01:14 19° SSE 01:04:04 46° E 01:08:13 10° NNE
OE (NEXTSAT) 4.2 01:03:39 40° WSW 01:04:43 69° SSE 01:08:11 10° E
STARLINK-1352 4.1 01:04:09 30° SSE 01:04:49 33° SE 01:08:01 10° ENE
STARLINK-1238 4.1 01:01:08 10° WNW 01:05:15 62° NNE 01:09:22 10° ESE
STARLINK-29 3.0 01:04:34 39° WSW 01:05:36 73° NNW 01:08:48 10° ENE
STARLINK-1368 4.1 01:06:14 31° SSE 01:06:58 35° SE 01:10:12 10° ENE
Cosmos 1455 2.3 01:03:14 10° N 01:06:59 71° E 01:09:23 21° SSE
ATLAS 3B R/B 3.2 01:02:19 10° NW 01:08:29 38° WSW 01:12:43 20° S
STARLINK-1369 4.0 01:08:12 31° S 01:08:59 36° SE 01:12:14 10° ENE
BREEZE-M DEB (TANK) 2.6 01:09:30 32° SE 01:09:30 32° SE 01:11:23 10° E
STARLINK-1201 4.0 01:06:08 10° WNW 01:10:16 66° NNE 01:14:24 10° ESE
STARLINK-1372 4.0 01:10:25 31° S 01:11:18 38° SE 01:14:36 10° ENE
IRS-1D 3.8 01:06:07 10° NNE 01:11:28 66° ESE 01:15:16 19° S
CENTAUR R/B 4.3 01:05:57 10° WNW 01:12:01 23° WSW 01:14:47 19° SW
GP-B 3.2 01:08:38 10° N 01:13:06 77° E 01:16:10 20° S
STARLINK-1378 3.9 01:12:32 31° S 01:13:30 39° SE 01:16:51 10° ENE
STARLINK-1329 3.9 01:12:59 31° S 01:13:59 40° SE 01:17:20 10° ENE
BREEZE-M DEB (TANK) 1.9 01:12:38 20° W 01:14:05 47° N 01:16:24 10° ENE
Meteor 2-1 Rocket 4.2 01:08:54 10° NNW 01:14:20 61° W 01:18:03 20° S
STARLINK-1365 3.8 01:13:46 32° S 01:14:48 42° SE 01:18:10 10° ENE
STARLINK-1206 3.9 01:11:06 10° WNW 01:15:15 70° NNE 01:19:24 10° ESE
STARLINK-1379 3.9 01:14:39 31° S 01:15:42 41° SE 01:19:03 10° ENE
STARLINK-1362 3.8 01:15:10 31° S 01:16:15 41° SE 01:19:37 10° ENE
Cosmos 1745 Rocket 4.4 01:12:45 23° SW 01:16:22 49° WNW 01:22:18 10° N
Cosmos-2242 3.3 01:12:21 10° N 01:16:37 67° ENE 01:20:32 12° SSE
STARLINK-1373 3.8 01:17:22 31° S 01:18:32 43° SE 01:21:56 10° ENE
STARLINK-1205 3.8 01:16:05 10° WNW 01:20:14 74° NNE 01:24:23 10° ESE
STARLINK-1390 3.7 01:19:27 31° SSW 01:20:41 45° SE 01:24:06 10° ENE
RESURS DK-1 3.6 01:19:17 19° WSW 01:21:31 32° NW 01:25:17 10° NNE
SL-08 R/B 3.9 01:16:58 10° SSE 01:21:35 56° ENE 01:26:08 10° N
Cosmos 2181 Rocket 4.1 01:16:49 10° N 01:23:17 85° E 01:29:44 10° S
Cosmos 2227 Rocket 2.1 01:19:13 10° NNW 01:24:55 80° WSW 01:30:35 10° SSE
STARLINK-1218 3.7 01:21:03 10° WNW 01:25:12 79° NNE 01:29:22 10° ESE
IRS-P3 4.4 01:20:58 10° NNE 01:26:17 64° ESE 01:30:48 14° S
CZ-2D R/B 2.5 01:21:51 10° N 01:26:56 50° WNW 01:30:15 21° SW
Cosmos 1763 Rocket 3.6 01:23:45 19° S 01:27:24 69° ESE 01:32:28 10° NNE
Cosmos 1697 Rocket 3.3 01:23:12 15° S 01:27:39 50° ESE 01:33:07 10° NE
Cosmos 1703 3.3 01:26:47 21° S 01:29:23 81° E 01:33:22 10° N
ADEOS II 2.2 01:24:28 10° NNE 01:29:45 74° ESE 01:34:07 15° S
STARLINK-1254 3.6 01:26:02 10° WNW 01:30:12 84° NNE 01:34:21 10° ESE
ATLAS 2AS CENTAUR R/B 4.2 01:24:41 10° W 01:31:55 35° NNW 01:39:01 10° NE
STARLINK-1231 3.6 01:31:02 10° WNW 01:35:12 89° NNE 01:39:21 10° ESE
Resurs 1-4 Rocket 2.8 01:31:42 10° N 01:36:38 41° WNW 01:40:11 18° SW
STARLINK-1228 3.9 01:33:48 10° WNW 01:36:43 28° SW 01:39:37 10° SSE
STARLINK-1234 4.2 01:35:14 10° WNW 01:41:18 - SSE 01:37:03 23° WSW
STARLINK-1212 3.4 01:36:27 10° WNW 01:39:20 34° SW 01:42:12 10° SSE
STARLINK-1105 3.4 01:36:57 10° WNW 01:39:47 34° SW 01:42:38 10° SSE
STARLINK-1232 3.5 01:36:01 10° WNW 01:40:11 85° SSW 01:44:20 10° ESE
STARLINK-1247 3.5 01:37:51 10° WNW 01:40:44 34° SW 01:43:35 10° SSE
STARLINK-1227 3.5 01:38:19 10° WNW 01:41:10 33° SW 01:43:59 10° SSE
ARIANE 5 R/B 3.0 01:36:51 10° NNE 01:41:52 59° E 01:46:48 10° S
STARLINK-1226 3.5 01:39:11 10° WNW 01:42:01 33° SW 01:44:52 10° SSE
STARLINK-52 3.8 01:39:41 15° W 01:42:06 46° NNW 01:45:14 10° NE
Cosmos 1758 Rocket 3.7 01:39:23 20° SSW 01:42:13 57° WNW 01:46:32 10° N
STARLINK-1215 3.5 01:40:08 10° WNW 01:42:58 32° SW 01:45:48 10° SSE
NPP 4.3 01:39:01 10° N 01:44:03 42° WNW 01:47:57 16° SW
H-2A R/B 3.1 01:40:09 10° SE 01:44:18 49° ENE 01:48:34 10° N
STARLINK-1217 3.6 01:41:55 10° WNW 01:44:43 31° SW 01:47:32 10° SSE
STARLINK-1208 3.5 01:40:59 10° WNW 01:45:08 80° SSW 01:49:16 10° SE
STARLINK-1229 3.6 01:42:50 10° WNW 01:45:39 30° SW 01:48:26 10° SSE
STARLINK-1270 3.6 01:43:43 10° WNW 01:46:30 30° SW 01:49:18 10° SSE
STARLINK-1189 3.7 01:45:34 10° WNW 01:48:20 29° SW 01:51:05 10° SSE
STARLINK-1188 3.7 01:46:27 10° WNW 01:49:13 28° SW 01:51:58 10° SSE
STARLINK-1235 4.0 01:47:19 10° W 01:49:48 22° SW 01:52:18 10° S
Cosmos 1898 Rocket 3.6 01:44:44 10° NNW 01:49:58 57° WSW 01:55:09 10° S
STARLINK-1271 3.5 01:45:59 10° WNW 01:50:07 74° SSW 01:54:15 10° SE
STARLINK-1187 3.9 01:47:39 10° W 01:50:16 25° SW 01:52:52 10° SSE
STARLINK-1191 3.8 01:48:58 10° WNW 01:51:40 27° SW 01:54:20 10° SSE
Lacrosse 4 Rocket 2.1 01:47:39 10° NNW 01:51:59 58° NE 01:56:09 10° SE
STARLINK-1221 3.8 01:49:50 10° W 01:52:31 27° SW 01:55:12 10° SSE
Cosmos 1656 3.9 01:48:20 16° SW 01:52:48 63° WNW 01:58:25 10° NNE
STARLINK-1222 3.8 01:50:45 10° W 01:53:25 26° SW 01:56:04 10° SSE
STARLINK-1214 3.8 01:51:41 10° W 01:54:19 26° SW 01:56:57 10° SSE
CZ-4C R/B 2.3 01:50:43 15° SSW 01:54:48 67° SE 02:00:41 10° NE
STARLINK-1154 3.5 01:50:59 10° WNW 01:55:06 69° SW 01:59:13 10° SE
IDEFIX/ARIANE 42P 3.7 01:50:13 10° NNE 01:55:13 41° E 02:00:11 10° SSE
SJ 16-02 1.9 01:51:17 10° NW 01:55:22 37° WSW 01:59:17 11° SSW
Cosmos 2285 Rocket 4.0 01:49:08 10° NNW 01:55:32 79° WSW 02:01:51 10° SSE
Cosmos 468 Rocket 4.2 01:52:22 16° SW 01:56:23 59° WNW 02:01:28 10° NNE
Cosmos 1570 Rocket 4.1 01:53:01 12° SSW 01:57:55 80° ESE 02:03:15 10° NNE
Cosmos 1953 Rocket 3.6 01:54:38 14° SSW 01:58:30 70° W 02:02:58 10° N
STARLINK-1197 3.6 01:55:57 10° WNW 02:00:04 64° SW 02:04:10 10° SE
Cosmos 1937 Rocket 3.5 01:55:04 10° NNW 02:00:15 63° WSW 02:05:27 10° S
Cosmos 2208 Rocket 4.2 01:55:43 11° S 02:00:48 71° ESE 02:06:06 10° NNE
Cosmos 2369 3.8 01:55:55 13° SSW 02:01:01 84° ESE 02:06:43 10° NNE
NOSS 7 (H) 4.1 01:59:33 17° SW 02:01:54 79° NW 02:04:51 10° NE
Meteor 2-10 Rocket 4.4 01:57:16 10° NNW 02:01:57 32° W 02:06:01 12° SSW
Cosmos 2360 4.5 01:58:24 10° SSW 02:03:59 68° ESE 02:09:40 10° NNE
STARLINK-1198 3.6 02:00:55 10° WNW 02:05:00 59° SW 02:09:05 10° SE
Cosmos 1842 Rocket 4.2 02:01:46 10° N 02:06:14 61° ENE 02:10:39 10° SSE
STARLINK-1199 3.7 02:05:57 10° WNW 02:10:00 54° SW 02:14:03 10° SE
Iridium 2 3.7 02:07:37 10° N 02:11:24 84° E 02:15:09 10° S
STARLINK-1269 4.4 02:08:10 10° WNW 02:12:15 55° NNE 02:16:19 10° E
USA 129 3.6 02:11:51 10° NE 02:13:30 22° E 02:14:46 10° SSE
STARLINK-1210 3.8 02:10:56 10° WNW 02:14:57 50° SW 02:18:57 10° SE
Cosmos 1814 Rocket 4.1 02:11:24 10° SSW 02:16:46 85° ESE 02:22:08 10° NNE
STARLINK-1200 4.3 02:13:09 10° WNW 02:17:16 58° NNE 02:21:21 10° ESE
Cosmos 2219 4.4 02:13:02 10° NW 02:17:19 22° W 02:21:34 10° SSW
STARLINK-1320 3.3 02:14:52 11° WSW 02:17:51 58° NNW 02:20:56 10° NE
STARLINK-1322 3.3 02:15:11 11° WSW 02:18:11 58° NNW 02:21:16 10° NE
STARLINK-1324 3.3 02:15:32 10° WSW 02:18:33 58° NNW 02:21:38 10° NE
STARLINK-1294 3.3 02:15:47 10° WSW 02:18:50 58° NNW 02:21:56 10° NE
STARLINK-1261 3.3 02:16:10 10° WSW 02:19:12 57° NNW 02:22:17 10° NE
STARLINK-1325 3.3 02:16:30 10° WSW 02:19:33 57° NNW 02:22:39 10° NE
STARLINK-1333 3.3 02:16:48 10° WSW 02:19:52 56° NNW 02:22:57 10° NE
Cosmos 1980 Rocket 2.5 02:14:21 10° SSW 02:19:54 69° ESE 02:25:32 10° NNE
STARLINK-1219 3.9 02:15:56 10° WNW 02:19:54 46° SW 02:23:53 10° SE
STARLINK-1334 3.3 02:17:08 10° WSW 02:20:12 56° NNW 02:23:17 10° NE
STARLINK-1326 3.3 02:17:29 10° WSW 02:20:34 56° NNW 02:23:39 10° NE
Nadezhda 3 Rocket 4.2 02:14:26 10° N 02:20:44 80° E 02:27:03 10° S
STARLINK-1323 3.3 02:17:49 10° WSW 02:20:53 56° NNW 02:23:58 10° NE
STARLINK-1338 3.4 02:17:40 10° WSW 02:21:07 64° NNW 02:24:35 10° ENE
STARLINK-1349 3.4 02:18:09 10° WSW 02:21:14 55° NNW 02:24:18 10° NE
STARLINK-1336 3.4 02:18:32 10° WSW 02:21:36 55° NNW 02:24:41 10° NE
CZ-4B R/B 3.8 02:19:11 10° SE 02:21:42 24° ENE 02:24:15 10° NNE
STARLINK-1331 3.4 02:18:50 10° WSW 02:21:54 55° NNW 02:24:59 10° NE
STARLINK-1344 3.4 02:19:11 10° WSW 02:22:15 54° NNW 02:25:19 10° NE
STARLINK-1192 4.2 02:18:08 10° WNW 02:22:15 61° NNE 02:26:22 10° ESE
STARLINK-1343 3.4 02:19:31 10° WSW 02:22:35 54° NNW 02:25:40 10° NE
STARLINK-1346 3.4 02:19:51 10° WSW 02:22:57 54° NNW 02:26:03 10° NE
STARLINK-1328 3.4 02:20:13 10° WSW 02:23:17 54° NNW 02:26:22 10° NE
STARLINK-1354 3.4 02:20:32 10° WSW 02:23:35 53° NNW 02:26:40 10° NE
STARLINK-1347 3.4 02:20:54 10° WSW 02:23:58 53° NNW 02:27:02 10° NE
ERS-2 2.5 02:20:34 10° S 02:24:03 42° W 02:27:34 10° NNW
STARLINK-1357 3.4 02:21:13 10° WSW 02:24:16 53° NNW 02:27:21 10° NE
STARLINK-1335 3.4 02:21:34 10° WSW 02:24:37 52° NNW 02:27:41 10° NE
STARLINK-1211 4.0 02:20:55 10° WNW 02:24:51 43° SW 02:28:46 10° SSE
STARLINK-1327 3.5 02:21:54 10° WSW 02:24:57 52° NNW 02:28:01 10° NE
STARLINK-1371 3.5 02:21:42 10° WSW 02:25:09 61° NNW 02:28:38 10° NE
STARLINK-1340 3.5 02:22:15 10° WSW 02:25:18 52° NNW 02:28:22 10° NE
STARLINK-1356 3.5 02:22:35 10° WSW 02:25:39 52° NNW 02:28:42 10° NE
STARLINK-1345 3.5 02:22:57 10° WSW 02:25:59 51° NNW 02:29:03 10° NE
STARLINK-1355 3.5 02:23:15 10° WSW 02:26:19 51° NNW 02:29:23 10° NE
STARLINK-1321 3.5 02:23:35 10° WSW 02:26:38 51° NNW 02:29:43 10° NE
STARLINK-1358 3.5 02:23:58 10° WSW 02:27:01 51° NNW 02:30:04 10° NE
ERBS 4.3 02:24:02 10° NW 02:27:06 32° NNE 02:30:09 10° E
STARLINK-1341 3.6 02:23:45 10° WSW 02:27:12 59° NNW 02:30:41 10° NE
STARLINK-1244 4.1 02:23:06 10° WNW 02:27:14 65° NNE 02:31:21 10° ESE
STARLINK-1332 3.5 02:24:16 10° WSW 02:27:19 50° NNW 02:30:23 10° NE
STARLINK-1348 3.5 02:24:39 10° WSW 02:27:41 50° NNW 02:30:45 10° NE
STARLINK-1330 3.5 02:24:58 10° WSW 02:28:00 50° NNW 02:31:03 10° NE
STARLINK-1363 3.5 02:25:18 10° W 02:28:20 50° NNW 02:31:24 10° NE
STARLINK-1337 3.6 02:25:38 10° W 02:28:41 49° NNW 02:31:44 10° NE
STARLINK-1342 3.6 02:25:59 10° W 02:29:01 49° NNW 02:32:05 10° NE
STARLINK-1374 3.6 02:25:47 10° WSW 02:29:15 58° NNW 02:32:44 10° NE
STARLINK-1364 3.6 02:26:19 10° W 02:29:22 49° NNW 02:32:25 10° NE
STARLINK-1376 3.6 02:26:41 10° W 02:29:43 49° NNW 02:32:46 10° NE
STARLINK-1245 4.1 02:25:57 10° WNW 02:29:49 39° SW 02:33:41 10° SSE
IRIDIUM 103 4.4 02:24:45 10° S 02:29:58 87° E 02:35:13 10° N
STARLINK-1360 3.6 02:26:57 10° W 02:29:59 49° NNW 02:33:03 10° NE
STARLINK-1361 3.6 02:27:23 10° W 02:30:26 48° NNW 02:33:28 10° NE
STARLINK-1367 3.6 02:27:38 10° W 02:30:42 49° NNW 02:33:47 10° NE
STARLINK-1366 3.6 02:28:02 10° W 02:31:04 48° NNW 02:34:07 10° NE
STARLINK-1339 3.7 02:27:53 10° WSW 02:31:21 56° NNW 02:34:49 10° NE
STARLINK-1138 4.0 02:28:04 10° WNW 02:32:13 68° NNE 02:36:21 10° ESE
SL-4 R/B 3.4 02:27:43 10° WNW 02:32:18 44° N 02:36:42 10° ENE
Cosmos 2297 Rocket 3.4 02:28:43 10° NW 02:32:49 21° W 02:36:55 10° SSW
STARLINK-1377 3.7 02:30:01 10° WSW 02:33:27 55° NNW 02:36:55 10° NE
STARLINK-1233 4.2 02:30:57 10° WNW 02:34:46 36° SW 02:38:34 10° SSE
STARLINK-1203 4.0 02:30:53 10° WNW 02:35:06 72° NNE 02:39:18 10° ESE
STARLINK-1353 3.7 02:31:55 10° WSW 02:35:19 53° NNW 02:38:45 10° NE
Cosmos 2082 4.2 02:31:40 10° NW 02:36:51 38° WSW 02:41:58 10° S
STARLINK-1375 3.8 02:33:46 10° WSW 02:37:11 52° NNW 02:40:36 10° NE
STARLINK-1143 3.9 02:33:03 10° WNW 02:37:13 73° NNE 02:41:21 10° ESE
Cosmos 1076 Rocket 4.3 02:33:20 10° S 02:37:36 56° E 02:41:53 10° NNE
Cosmos 540 Rocket 3.7 02:33:00 10° SW 02:38:04 60° WNW 02:43:10 10° NNE
STARLINK-1350 3.8 02:36:11 10° W 02:39:35 50° NNW 02:43:00 10° NE
STARLINK-1204 4.3 02:35:59 10° WNW 02:39:44 33° SW 02:43:28 10° SSE
Landsat 5 3.8 02:36:28 10° S 02:40:54 60° WSW 02:45:24 10° NNW
Cosmos 2278 3.8 02:36:59 10° SW 02:42:37 69° WNW 02:48:17 10° NNE
USA 234 3.7 02:36:41 10° ENE 02:43:09 59° SE 02:49:34 10° SW
